Location: Gugi
(45.4667°N, 11.1000°E)
Time: 10:59:05
(UTC+00:00)

Cosmos 1633 - Pass Details

Date: 17 November 2019
Orbit: 465 x 482 km, 82.5° (Epoch: 11 December)

Event Time Altitude Azimuth Distance (km) Brightness Sun altitude
Rises 17:00:14 0° 352° (N) 2,558 6.2 -13.4°
Reaches altitude 10° 17:02:21 10° 353° (N) 1,672 5.2 -13.7°
Maximum altitude 17:06:01 82° 82° (E) 492 2.4 -14.4°
Drops below altitude 10° 17:09:37 10° 170° (S) 1,651 5.3 -15.0°
Sets 17:11:42 0° 171° (S) 2,523 6.2 -15.3°
